www.pogodaiklimat.ru

Погода и климат >> Архив погоды >> Россия >> Якутия >> Крест-Хальджай


ПОГОДА в Крест-Хальджае

  • Прогноз погоды в Крест-Хальджае
  • Монитор погоды в Крест-Хальджае

АРХИВ ПОГОДЫ в Крест-Хальджае

Время (UTC), дата Ветер
(напр.,м/с)
 
Видим.   Явления Облачность Т
(С)
Тd
(С)
f
(%)
Тe
(С)
Тes
(С)
Комфортность P
(гПа)
Po
(гПа)
Тmin
(С)
Tmax
(С)
R
(мм)
R24
(мм)
S
(см)
18 9.06 СВ 2 50 км ясно +8.0 -5.6 38 +7 +7 1012.8 998.8
21 9.06 СВ 1 50 км ясно +11.7 +7.6 76 +12 +15 1013.7 999.9 +8.0
00 10.06 ЮВ 2 50 км ясно +17.3 +7.4 52 +18 +27 1013.1 999.6
03 10.06 ЮВ 2 50 км 3/0
[Ci sp]
+21.7 +8.2 42 +23 +35 комфорт 1011.5 998.2
06 10.06 ЮВ 2 50 км 5/3 1000 м
[Cu med, cong Ci fib]
+22.6 +7.1 37 +23 +30 комфорт 1010.3 997.0
09 10.06 ЮВ 2 50 км 5/3 1000 м
[Cu med, cong Ci fib]
+22.2 +4.9 32 +22 +24 комфорт 1009.4 996.2 +23.0
12 10.06 ЮВ 2 50 км 3/0
[Ci fib]
+18.6 +5.5 42 +19 +20 1009.7 996.3
15 10.06 ЮВ 1 50 км 3/0
[Ci fib]
+13.2 +6.8 65 +14 +14 1010.8 997.1
18 10.06 Ю 2 50 км 8/0
[Ac As]
+13.7 +5.7 58 +13 +13 1011.7 998.0
21 10.06 Ю 3 50 км 3/0
[Cs]
+14.2 +5.8 57 +13 +15 1012.4 998.7 +12.5
00 11.06 штиль 0 50 км ?/? +17.0 +7.5 54 +17 +17 1012.5 999.0
03 11.06 Ю 3 50 км ясно +21.0 +7.7 42 +23 +34 комфорт 1012.3 999.0
06 11.06 ЮВ 2 50 км ясно +22.0 +6.3 36 +23 +32 комфорт 1011.3 998.0
09 11.06 ЮВ 2 50 км ясно +22.6 +4.3 30 +23 +25 комфорт 1009.2 996.0 +22.7
12 11.06 ЮВ 1 50 км ясно +20.0 +5.7 39 +22 +22 комфорт 1007.3 994.0
15 11.06 штиль 0 50 км ясно +11.0 +5.6 69 +11 +11 1007.9 994.2
18 11.06 штиль 0 50 км ясно +8.3 +6.1 86 +7 +8 1008.1 994.2
21 11.06 штиль 0 50 км ясно +13.8 +8.0 68 +14 +17 1008.0 994.4 +8.3
00 12.06 ЮВ 2 50 км ясно +20.2 +6.6 41 +22 +31 комфорт 1008.3 995.0
03 12.06 штиль 0 50 км ясно +21.8 +5.7 35 +22 +40 комфорт 1007.2 993.9
06 12.06 В 1 50 км 3/3 1000 м
[Cu hum]
+22.8 +5.0 31 +23 +31 комфорт 1005.6 992.4
09 12.06 В 1 50 км 3/3 1000 м
[Cu hum]
+23.4 +5.7 32 +24 +26 комфорт 1004.7 991.5 +23.4
12 12.06 штиль 0 50 км ясно +21.0 +5.6 37 +22 +22 комфорт 1005.5 992.2
15 12.06 штиль 0 50 км ясно +16.3 +6.0 50 +16 +16 1006.9 993.4
18 12.06 50 км н/о +13.4 +5.6 59 +13 +13 1008.3 994.6
21 12.06 50 км н/о +14.1 +5.2 55 +14 +14 1009.9 996.3 +13.4
00 13.06 ЮВ 2 50 км 8/0
[Ac trans Ci fib]
+17.0 +6.7 51 +17 +23 1010.7 997.3
03 13.06 ЮВ 3 50 км ясно +20.8 +5.5 37 +22 +33 комфорт 1010.6 997.3
06 13.06 ЮВ 2 50 км ясно +22.2 +5.5 34 +23 +32 комфорт 1009.6 996.4
09 13.06 ЮВ 2 50 км ясно +21.4 +4.7 34 +22 +25 комфорт 1009.4 996.2 +22.3
12 13.06 ЮВ 2 50 км ясно +19.2 +4.5 38 +20 +20 1010.7 997.4
15 13.06 ЮВ 1 50 км ясно +12.8 +4.5 57 +13 +13 1012.1 998.3
18 13.06 Ю 1 50 км ясно +7.0 +4.7 85 +6 +6 1013.9 999.9
21 13.06 штиль 0 50 км ясно +8.2 +7.4 95 +7 +11 1014.9 1000.9 +7.0
00 14.06 ЮЗ 1 50 км 8/0
[Ac trans Ci sp]
+15.2 +7.6 60 +16 +23 1015.1 1001.5
03 14.06 ЮЗ 1 50 км 9/0
[Ac As]
+20.0 +7.8 45 +22 +28 комфорт 1014.6 1001.2
06 14.06 ЮВ 2 50 км 6/0
[Ac trans Ci fib]
+22.2 +8.4 41 +23 +30 комфорт 1013.1 999.8
09 14.06 ЮЗ 3 50 км 3/3 1000 м
[Cu hum]
+22.6 +7.7 38 +24 +25 комфорт 1012.4 999.1 +23.5
12 14.06 ЮЗ 1 50 км 3/0
[Ci fib]
+19.0 +8.7 51 +21 +21 комфорт 1012.8 999.4
15 14.06 ЮЗ 1 50 км 4/0
[Ac trans Ci fib]
+13.2 +11.5 89 +13 +13 1013.2 999.5
18 14.06 Ю 1 50 км 4/0
[Ac trans Ci fib]
+11.8 +11.2 96 +12 +12 1013.6 999.8
21 14.06 штиль 0 50 км 4/0
[Ac trans Ci fib]
+13.2 +8.6 74 +13 +16 1014.0 1000.3 +10.5
00 15.06 штиль 0 50 км ясно +17.8 +7.6 51 +18 +30 опасность
простуды
1014.0 1000.5
03 15.06 ЮВ 2 50 км 10/0
[Ci fib]
+22.5 +6.8 36 +23 +34 комфорт 1013.8 1000.5
06 15.06 ЮВ 2 50 км 10/0
[Ci fib]
+24.2 +6.1 31 +24 +32 комфорт 1013.2 1000.0
09 15.06 Ю 2 50 км 8/0
[Ci fib]
+25.0 +6.0 30 +25 +27 комфорт 1012.1 999.0 +25.1
12 15.06 штиль 0 50 км 8/0
[Ci fib]
+22.2 +5.2 33 +23 +23 комфорт 1011.3 998.0
15 15.06 штиль 0 50 км 8/0
[Ci fib]
+13.5 +10.0 79 +13 +13 1011.9 998.2
18 15.06 штиль 0 50 км ясно +11.0 +9.1 88 +10 +10 1011.7 998.2
21 15.06 штиль 0 50 км 10/0
[Ac trans Ci fib]
+14.5 +9.0 70 +14 +16 1012.9 999.2 +14.3
00 16.06 ЮВ 2 50 км 8/0
[Ac trans Ci fib]
+16.2 +9.3 64 +16 +23 1015.1 1001.5
03 16.06 В 1 50 км 6/6 1000 м
[Cu hum]
+18.3 +10.3 60 +20 +26 1014.4 1000.9
06 16.06 ЮВ 2 50 км 4/4 1000 м
[Cu hum]
+21.6 +10.0 48 +23 +29 комфорт 1013.1 999.7
09 16.06 Ю 1 50 км ясно +22.1 +6.2 36 +23 +26 комфорт 1011.9 998.6 +22.1
12 16.06 ЮЗ 1 50 км ясно +20.4 +8.6 47 +23 +23 комфорт 1011.7 998.3
15 16.06 Ю 1 50 км ясно +13.4 +11.9 91 +14 +14 1012.2 998.4

 

Местоположение метеостанции Крест-Хальджай (Якутия, Россия): широта 62.82 долгота 134.40 высота над уровнем моря 115 м.

В архиве по умолчанию представлена погода в Крест-Хальджае за последнюю неделю. Архивные данные за месяц целиком и за предыдущие месяцы, начиная с января 2011 года, Вы можете получить, выбрав интересующий диапазон дат из раскрывающегося списка и нажав кнопку "Ввод!".


*Определитесь, кто Вы:
робот инопланетянин человек

Внимание! Время в таблицах - всемирное. Для получения местного времени необходимо прибавить поправку, которая равна 9 ч.

Смотрите также архив погоды в соседних городах и на ближайших метеорологических станциях:

Погода в Ытык-Кюёле (Якутия, Россия) (68 км)
Погода в Охотском Перевозе (Якутия, Россия) (120 км)
Погода в Теплом Ключе (Якутия, Россия) (122 км)
Погода в Чурапче (Якутия, Россия) (128 км)
Погода в Верхоянском Перевозе (Якутия, Россия) (133 км)
Погода в Томпо (Якутия, Россия) (144 км)
Погода в Сеген-Кюеле (Якутия, Россия) (243 км)
Погода в Намцах (Якутия, Россия) (244 км)
Погода в Амге (Якутия, Россия) (251 км)
Погода в Батамае (Якутия, Россия) (263 км)

Пояснения к столбцам:

Ветер - указаны скорость ветра в м/с - средняя за 10 мин, порывы в срок и между сроками (в фигурных скобках) и направление, откуда дует ветер: С - северный, СВ - северо-восточный, В - восточный, ЮВ - юго-восточный, Ю - южный, ЮЗ - юго-западный, З - западный, СЗ - северо-западный.
Видимость - горизонтальная дальность видимости в метрах или километрах. При видимости от 1 до 10 км при отсутствии осадков обычно наблюдается дымка, при ухудшении видимости до 1 км и менее - туман. В сухую погоду видимость может ухудшаться дымом, пылью или мглою.
Явления - указаны атмосферные явления, наблюдавшиеся в срок или в последний час перед сроком; фигурными скобками обозначены явления, наблюдавшиеся между сроками (за 1-3 часа до срока); квадратными скобками обозначены град или гололедные отложения с указанием их диаметра в мм.
Облачность - указаны через наклонную черту общая и нижняя облачность в баллах и высота нижней границы облаков в метрах; квадратными скобками обозначены формы облаков: Ci - перистые, Cs - перисто-слоистые, Cc - перисто-кучевые, Ac - высококучевые, As - высокослоистые, Sc - слоисто-кучевые, Ns - слоисто-дождевые, Cu - кучевые, Cb - кучево-дождевые. Подробнее классификацию облаков см. в Атласе облаков (PDF).
T - Температура воздуха - температура, измеренная на высоте 2 м над землей.
Td - Температура точки росы - температура, при понижении до которой содержащийся в воздухе водяной пар достигнет насыщения.
f - Относительная влажность воздуха - влажноcть воздуха, измеренная на высоте 2 м над землей.
Te - Эффективная температура - температура, которую ощущает одетый по сезону человек в тени. Характеристика душности погоды. При расчете учитывается влияние влажности воздуха и скорости ветра на теплоощущения человека.
Tes - Эффективная температура на солнце - температура, которую ощущает человек, с поправкой на солнечный нагрев. Характеристика знойности погоды. Зависит от высоты солнца над горизонтом, облачности и скорости ветра. Ночью, в пасмурную погоду, а также при ветре 12 м/с и более поправка равна нулю.
P - Атмосферное давление - приведенное к уровню моря атмосферное давление.
Po - Атмосферное давление - измеренное на уровне метеостанции атмосферное давление.
Tmin - Минимальная температура - минимум температуры воздуха на высоте 2 м над землей.
Tmax - Максимальная температура - максимум температуры воздуха на высоте 2 м над землей.
R - Количество осадков - Количество выпавших осадков за период времени, мм. При наведении курсора мыши на число - период времени, за который выпало указанное количество осадков.
R24 - Количество осадков - Количество выпавших осадков за 24 часа, мм.
S - Снежный покров - Высота снежного покрова, см. При наведении курсора мыши на число - состояние снежного покрова и степень покрытия местности в баллах.